Dequincy, LA

8:42 PM CST on February 27, 2017 (GMT -0600)
De Quincy Industrial Air Park

Weather History for K5R8 - February, 2014

Change the Weather History Date:

Saturday, February 22, 2014

  Actual Average (KCWF) Record (KCWF)
Temperature  
Mean Temperature 52 °F -  
Max Temperature 68 °F 64 °F 78 °F (2005)
Min Temperature 37 °F 50 °F 33 °F (1999)
Degree Days  
Heating Degree Days 12    
Growing Degree Days 2 (Base 50)    
Moisture  
Dew Point 40 °F    
Average Humidity 66    
Maximum Humidity 97    
Minimum Humidity 31    
Precipitation  
Precipitation 0.00 in - - ()
Sea Level Pressure  
Sea Level Pressure 30.04 in    
Wind  
Wind Speed 2 mph (SE)    
Max Wind Speed 12 mph    
Max Gust Speed 20 mph    
Visibility 10 miles    
Events      
Averages and records for this station are not official NWS values.
T = Trace of Precipitation, MM = Missing Value Source: NWS Daily Summary

Daily Weather History Graph

Daily Weather History Graph

Search for Another Location

Airport or City:

Trip Planner

Search our weather history database for the weather conditions in past years. The results will help you decide how hot, cold, wet, or windy it might be!

Date:

Astronomy

Feb. 22, 2014 Rise Set
Actual Time 6:47 AM CST 6:07 PM CST
Civil Twilight 6:23 AM CST 6:31 PM CST
Nautical Twilight 5:55 AM CST 6:59 PM CST
Astronomical Twilight 5:27 AM CST 7:27 PM CST
Moon 12:33 AM CST (2/22) 11:29 AM CST (2/22)
Length of Visible Light 12h 08m
Length of Day
11h 20m
Waning Gibbous, 50% of the Moon is Illuminated
Feb 22
Waning Gibbous
Mar 1
New
Mar 8
First Quarter
Mar 16
Full
Mar 23
Last Quarter

Hourly Weather History & Observations

Time (CST) Temp. Dew Point Humidity Pressure Visibility Wind Dir Wind Speed Gust Speed Precip Events Conditions
12:15 AM 39.6 °F 37.8 °F 93% 30.10 in 10.0 mi Calm Calm - N/A   Clear
12:35 AM 39.2 °F 36.5 °F 90% 30.11 in 10.0 mi Calm Calm - N/A   Clear
12:55 AM 39.2 °F 36.5 °F 90% 30.10 in 10.0 mi Calm Calm - N/A   Clear
1:15 AM 38.7 °F 35.8 °F 89% 30.10 in 10.0 mi Calm Calm - N/A   Clear
1:35 AM 39.0 °F 36.9 °F 92% 30.10 in 10.0 mi Calm Calm - N/A   Clear
1:55 AM 38.7 °F 36.9 °F 93% 30.10 in 10.0 mi Calm Calm - N/A   Clear
2:15 AM 38.3 °F 36.9 °F 95% 30.09 in 10.0 mi Calm Calm - N/A   Clear
2:35 AM 37.8 °F 36.3 °F 95% 30.08 in 10.0 mi Calm Calm - N/A   Clear
2:55 AM 38.3 °F 36.7 °F 94% 30.08 in 10.0 mi Calm Calm - N/A   Clear
3:15 AM 38.7 °F 37.4 °F 95% 30.08 in 10.0 mi Calm Calm - N/A   Clear
3:35 AM 38.3 °F 36.7 °F 94% 30.07 in 10.0 mi Calm Calm - N/A   Clear
3:55 AM 37.8 °F 36.7 °F 96% 30.07 in 10.0 mi Calm Calm - N/A   Clear
4:15 AM 37.9 °F 37.0 °F 97% 30.07 in 10.0 mi Calm Calm - N/A   Clear
4:35 AM 37.4 °F 36.5 °F 97% 30.06 in 10.0 mi Calm Calm - N/A   Clear
4:55 AM 39.2 °F 37.8 °F 95% 30.07 in 10.0 mi Calm Calm - N/A   Mostly Cloudy
5:15 AM 41.2 °F 38.5 °F 90% 30.08 in 10.0 mi Calm Calm - N/A   Overcast
5:35 AM 41.0 °F 38.3 °F 90% 30.09 in 10.0 mi Calm Calm - N/A   Mostly Cloudy
5:55 AM 40.3 °F 38.5 °F 93% 30.09 in 10.0 mi Calm Calm - N/A   Scattered Clouds
6:15 AM 39.6 °F 37.6 °F 93% 30.10 in 10.0 mi Calm Calm - N/A   Clear
6:35 AM 39.0 °F 37.4 °F 94% 30.10 in 10.0 mi Calm Calm - N/A   Clear
6:55 AM 38.7 °F 37.2 °F 95% 30.11 in 10.0 mi Calm Calm - N/A   Clear
7:15 AM 38.7 °F 37.2 °F 95% 30.11 in 10.0 mi Calm Calm - N/A   Clear
7:35 AM 40.6 °F 39.4 °F 95% 30.11 in 10.0 mi Calm Calm - N/A   Clear
7:55 AM 44.8 °F 38.7 °F 79% 30.11 in 10.0 mi Calm Calm - N/A   Clear
8:15 AM 47.3 °F 38.3 °F 71% 30.11 in 10.0 mi Calm Calm - N/A   Clear
8:35 AM 49.1 °F 38.8 °F 68% 30.12 in 10.0 mi Calm Calm - N/A   Clear
8:55 AM 52.2 °F 39.9 °F 63% 30.12 in 10.0 mi Calm Calm - N/A   Clear
9:15 AM 55.8 °F 38.5 °F 52% 30.12 in 10.0 mi East 3.5 mph - N/A   Clear
9:35 AM 57.7 °F 37.0 °F 46% 30.12 in 10.0 mi ESE 5.8 mph - N/A   Clear
9:55 AM 59.7 °F 35.8 °F 41% 30.12 in 10.0 mi ESE 8.1 mph - N/A   Clear
10:15 AM 61.5 °F 35.2 °F 37% 30.11 in 10.0 mi East 6.9 mph - N/A   Clear
10:35 AM 62.8 °F 34.0 °F 34% 30.11 in 10.0 mi ESE 9.2 mph 16.1 mph N/A   Clear
10:55 AM 63.9 °F 35.4 °F 35% 30.10 in 10.0 mi ESE 11.5 mph - N/A   Clear
11:15 AM 64.6 °F 35.1 °F 33% 30.09 in 10.0 mi SE 9.2 mph - N/A   Clear
11:35 AM 64.9 °F 33.8 °F 31% 30.08 in 10.0 mi SE 10.4 mph - N/A   Clear
11:55 AM 65.7 °F 34.0 °F 31% 30.08 in 10.0 mi SE 11.5 mph - N/A   Clear
12:15 PM 66.0 °F 36.0 °F 33% 30.08 in 10.0 mi SE 9.2 mph - N/A   Clear
12:35 PM 66.2 °F 35.2 °F 32% 30.06 in 10.0 mi SE 9.2 mph - N/A   Clear
12:55 PM 66.9 °F 36.7 °F 33% 30.05 in 10.0 mi SE 11.5 mph 19.6 mph N/A   Clear
1:15 PM 67.6 °F 36.3 °F 32% 30.04 in 10.0 mi SSE 6.9 mph - N/A   Clear
1:35 PM 67.3 °F 36.1 °F 32% 30.03 in 10.0 mi SE 6.9 mph - N/A   Clear
1:55 PM 66.9 °F 35.4 °F 31% 30.02 in 10.0 mi SSE 10.4 mph - N/A   Clear
2:15 PM 67.6 °F 36.0 °F 31% 30.01 in 10.0 mi SSE 9.2 mph 16.1 mph N/A   Clear
2:35 PM 68.0 °F 36.5 °F 31% 30.00 in 10.0 mi SE 8.1 mph - N/A   Clear
2:55 PM 67.5 °F 41.0 °F 38% 30.00 in 10.0 mi SSE 8.1 mph - N/A   Clear
3:15 PM 66.2 °F 41.4 °F 40% 30.00 in 10.0 mi South 10.4 mph - N/A   Clear
3:35 PM 65.7 °F 39.9 °F 39% 29.99 in 10.0 mi SSE 8.1 mph - N/A   Clear
3:55 PM 65.3 °F 40.8 °F 41% 29.99 in 10.0 mi SSE 11.5 mph - N/A   Clear
4:15 PM 64.8 °F 41.4 °F 42% 29.98 in 10.0 mi SSE 9.2 mph - N/A   Clear
4:35 PM 64.6 °F 40.8 °F 42% 29.98 in 10.0 mi SSE 8.1 mph - N/A   Clear
4:55 PM 64.4 °F 40.3 °F 41% 29.97 in 10.0 mi SE 6.9 mph - N/A   Clear
5:15 PM 63.3 °F 40.6 °F 43% 29.96 in 10.0 mi SSE 3.5 mph - N/A   Clear
5:35 PM 62.1 °F 41.7 °F 47% 29.96 in 10.0 mi SSE 5.8 mph - N/A   Clear
5:55 PM 61.0 °F 42.6 °F 51% 29.97 in 10.0 mi Calm Calm - N/A   Clear
6:15 PM 59.2 °F 43.9 °F 57% 29.96 in 10.0 mi Calm Calm - N/A   Clear
6:35 PM 57.9 °F 43.5 °F 59% 29.96 in 10.0 mi Calm Calm - N/A   Clear
6:55 PM 55.4 °F 45.5 °F 69% 29.96 in 10.0 mi SSE 3.5 mph - N/A   Clear
7:15 PM 57.2 °F 45.1 °F 64% 29.96 in 10.0 mi Calm Calm - N/A   Clear
7:35 PM 55.9 °F 46.6 °F 71% 29.97 in 10.0 mi Calm Calm - N/A   Clear
7:55 PM 55.2 °F 45.3 °F 69% 29.98 in 10.0 mi Calm Calm - N/A   Clear
8:15 PM 54.3 °F 46.2 °F 74% 29.99 in 10.0 mi Calm Calm - N/A   Scattered Clouds
8:35 PM 54.7 °F 46.6 °F 74% 29.98 in 10.0 mi Calm Calm - N/A   Mostly Cloudy
8:55 PM 55.6 °F 48.7 °F 78% 29.98 in 10.0 mi Calm Calm - N/A   Overcast
9:15 PM 56.3 °F 47.1 °F 71% 29.98 in 10.0 mi Calm Calm - N/A   Overcast
9:35 PM 56.3 °F 48.2 °F 74% 29.98 in 10.0 mi Calm Calm - N/A   Overcast
9:55 PM 56.7 °F 49.1 °F 76% 29.98 in 10.0 mi Calm Calm - N/A   Overcast
10:15 PM 56.7 °F 49.3 °F 76% 29.98 in 10.0 mi Calm Calm - N/A   Overcast
10:35 PM 56.8 °F 49.1 °F 75% 29.99 in 10.0 mi Calm Calm - N/A   Overcast
10:55 PM 57.2 °F 49.6 °F 76% 29.99 in 10.0 mi Calm Calm - N/A   Overcast
11:15 PM 57.2 °F 49.5 °F 75% 29.97 in 10.0 mi Calm Calm - N/A   Overcast
11:35 PM 57.4 °F 50.5 °F 78% 29.98 in 10.0 mi Calm Calm - N/A   Overcast
11:55 PM 58.8 °F 54.0 °F 84% 29.98 in 10.0 mi Calm Calm - N/A   Overcast